TimePDT,TemperatureF,Dew PointF,Humidity,Sea Level PressureIn,VisibilityMPH,Wind Direction,Wind SpeedMPH,Gust SpeedMPH,PrecipitationIn,Events,Conditions,WindDirDegrees,DateUTC
12:04 AM,44.6,42.8,93,30.02,10.0,Variable,3.5,-,N/A,,Mostly Cloudy,0,2013-05-17 07:04:00
12:52 AM,43.0,39.9,89,29.93,10.0,ESE,4.6,-,N/A,,Partly Cloudy,120,2013-05-17 07:52:00
1:45 AM,44.6,39.2,81,30.01,10.0,SE,6.9,-,N/A,,Mostly Cloudy,140,2013-05-17 08:45:00
1:52 AM,44.1,39.0,82,29.91,10.0,SSE,8.1,-,N/A,,Mostly Cloudy,150,2013-05-17 08:52:00
2:36 AM,42.8,39.2,87,30.00,10.0,SSE,4.6,-,N/A,,Scattered Clouds,160,2013-05-17 09:36:00
2:52 AM,43.0,39.9,89,29.90,10.0,SSE,6.9,-,N/A,,Mostly Cloudy,150,2013-05-17 09:52:00
3:10 AM,44.6,39.2,81,29.99,10.0,SSE,6.9,-,N/A,,Overcast,150,2013-05-17 10:10:00
3:41 AM,42.8,39.2,87,29.99,10.0,SE,6.9,-,N/A,,Scattered Clouds,140,2013-05-17 10:41:00
3:52 AM,43.0,39.0,86,29.89,10.0,SE,8.1,-,N/A,,Scattered Clouds,140,2013-05-17 10:52:00
4:52 AM,42.1,39.0,89,29.90,10.0,SE,4.6,-,N/A,,Clear,130,2013-05-17 11:52:00
5:52 AM,42.1,36.0,79,29.90,10.0,SE,5.8,-,N/A,,Clear,130,2013-05-17 12:52:00
6:52 AM,43.0,37.9,82,29.91,10.0,Variable,4.6,-,N/A,,Partly Cloudy,0,2013-05-17 13:52:00
7:52 AM,46.0,37.0,71,29.91,10.0,Variable,4.6,-,N/A,,Clear,0,2013-05-17 14:52:00
8:52 AM,46.9,35.1,63,29.93,10.0,South,10.4,-,N/A,,Clear,180,2013-05-17 15:52:00
9:52 AM,48.0,33.1,56,29.93,10.0,SSE,11.5,17.3,N/A,,Clear,160,2013-05-17 16:52:00
10:52 AM,50.0,34.0,54,29.93,10.0,Variable,6.9,-,N/A,,Clear,0,2013-05-17 17:52:00
11:52 AM,51.1,34.0,52,29.95,10.0,South,9.2,-,N/A,,Partly Cloudy,170,2013-05-17 18:52:00
12:52 PM,52.0,35.1,53,29.96,10.0,South,16.1,20.7,N/A,,Partly Cloudy,170,2013-05-17 19:52:00
1:52 PM,53.1,35.1,50,29.96,10.0,SSW,11.5,16.1,N/A,,Mostly Cloudy,200,2013-05-17 20:52:00
2:52 PM,52.0,33.1,49,29.97,10.0,South,11.5,19.6,N/A,,Mostly Cloudy,170,2013-05-17 21:52:00
3:52 PM,53.1,32.0,45,29.97,10.0,South,10.4,17.3,N/A,,Mostly Cloudy,180,2013-05-17 22:52:00
4:52 PM,53.1,35.1,50,29.98,10.0,Variable,5.8,-,N/A,,Mostly Cloudy,0,2013-05-17 23:52:00
5:52 PM,51.1,32.0,48,29.99,10.0,SW,8.1,-,N/A,,Clear,220,2013-05-18 00:52:00
6:52 PM,51.1,35.1,54,30.00,10.0,Variable,5.8,-,N/A,,Mostly Cloudy,0,2013-05-18 01:52:00
7:52 PM,48.9,35.1,59,30.01,10.0,SSW,4.6,-,N/A,,Clear,210,2013-05-18 02:52:00
8:52 PM,46.9,35.1,63,30.03,10.0,SSW,3.5,-,N/A,,Clear,210,2013-05-18 03:52:00
9:52 PM,45.0,35.1,68,30.04,10.0,Calm,Calm,-,N/A,,Clear,0,2013-05-18 04:52:00
10:52 PM,44.1,35.1,71,30.04,10.0,East,3.5,-,N/A,,Clear,100,2013-05-18 05:52:00
11:52 PM,46.0,33.1,61,30.02,10.0,ENE,3.5,-,N/A,,Clear,70,2013-05-18 06:52:00